H2SAT (HEINRICH HERTZ)

Last updated on Thu Nov 21 2024 00:02:45 GMT+0000 (Coordinated Universal Time)

1 57213U 23093A 24325.34007743 .00000002 00000+0 00000+0 0 9999 2 57213 0.0146 296.1417 0002364 315.0211 291.6163 1.00270740 5160
UTC large
Height (km)
Speed (km/s)
/
Latitude / Longitude
Inclination (degrees)
Orbital Period (minutes)
Azimuth
Elevation
Range (km)
Doppler Factor

Next 0 passes for location: London (51.5072 / 0.1276)

Sorry there are no passes over London.